Location: Beekmeers
(50.8953°N, 3.6968°E)
Time: 21:42:37
(UTC+00:00)

Cosmos 1954 Rocket - Pass Details

Date: 23 May 2024
Orbit: 750 x 779 km, 74.0° (Epoch: 14 June)

Event Time Altitude Azimuth Distance (km) Brightness Sun altitude
Exits shadow 00:48:44 29° 190° (S) 1,400 4.8 -17.0°
Maximum altitude 00:51:29 74° 111° (ESE) 815 4.1 -16.8°
Drops below altitude 10° 00:56:48 10° 27° (NNE) 2,340 7.8 -16.6°
Sets 00:59:12 0° 26° (NNE) 3,270 9.0 -16.5°
